Location: Avully
(45.9633°N, 6.0228°E)
Time: 02:33:23
(UTC+00:00)

SAR-Lupe-1 - Pass Details

Date: 23 May 2024
Orbit: 479 x 482 km, 98.1° (Epoch: 04 May)

Event Time Altitude Azimuth Distance (km) Brightness Sun altitude
Rises 02:32:38 0° 13° (NNE) 2,551 8.9 -11.9°
Reaches altitude 10° 02:34:43 10° 13° (NNE) 1,667 7.8 -11.7°
Maximum altitude 02:38:17 87° 290° (WNW) 488 4.0 -11.2°
Enters shadow 02:41:25 13° 196° (SSW) 1,470 6.0 -10.9°
